CW4320 Weather Reports


time (UTC)temp
F
wind
direction
speed
knots
gust
knots
rain 1hr
in
rain 24hr
in
rain mn
in
humidity
%
barometer
mb
20260902132539 76 59 9.6 13.9 0.00 0.00 0.00 78 1023.6
20260902132024 76 42 9.6 14.8 0.00 0.00 0.00 78 1023.6
20260902131532 76 40 10.4 14.8 0.00 0.00 0.00 78 1023.6
20260902131036 77 15 9.6 13.9 0.00 0.00 0.00 77 1023.6
20260902130601 77 63 10.4 14.8 0.00 0.00 0.00 77 1023.6
20260902130024 76 42 12.2 14.8 0.00 0.00 0.00 78 1023.6
20260902125531 77 38 11.3 13.9 0.00 0.00 0.00 77 1023.6
20260902125036 77 63 9.6 13.9 0.00 0.00 0.00 78 1023.6
20260902124523 77 46 9.6 13.9 0.00 0.00 0.00 77 1023.6
20260902123538 76 10 8.7 15.6 0.00 0.00 0.00 80 1023.6
20260902123024 76 28 12.2 15.6 0.00 0.00 0.00 80 1023.6
20260902122534 76 359 9.6 15.6 0.00 0.00 0.00 80 1023.5
20260902122022 76 5 9.6 15.6 0.00 0.00 0.00 79 1023.5
20260902121530 76 11 10.4 15.6 0.00 0.00 0.00 80 1023.5
20260902121035 76 22 9.6 13.9 0.00 0.00 0.00 79 1023.5
20260902120556 76 2 12.2 13.9 0.00 0.00 0.00 78 1023.5
20260902120039 76 1 10.4 13.9 0.00 0.00 0.00 78 1023.5
20260902115528 77 359 8.7 13.9 0.00 0.00 0.00 77 1023.6
20260902115032 76 54 8.7 13.0 0.00 0.00 0.00 79 1023.6
20260902114522 77 51 7.8 12.2 0.00 0.00 0.00 76 1023.6
20260902114028 77 24 7.0 11.3 0.00 0.00 0.00 77 1023.6
20260902113537 77 10 7.0 10.4 0.00 0.00 0.00 75 1023.6
20260902112535 77 359 5.2 10.4 0.00 0.00 0.00 77 1023.5
20260902112038 76 21 7.0 10.4 0.00 0.00 0.00 77 1023.5
20260902111528 76 360 7.0 9.6 0.00 0.00 0.00 79 1023.5
20260902110559 75 37 7.0 11.3 0.00 0.00 0.00 80 1023.5
20260902110023 74 37 5.2 7.8 0.00 0.00 0.00 81 1023.5
20260902103522 73 360 6.1 10.4 0.00 0.00 0.00 83 1023.6
20260902103028 72 40 5.2 8.7 0.00 0.00 0.00 84 1023.6
20260902102535 72 353 5.2 10.4 0.00 0.00 0.00 84 1023.6
20260902102024 72 1 5.2 11.3 0.00 0.00 0.00 86 1023.6
20260902101039 73 342 5.2 10.4 0.00 0.00 0.00 83 1023.6
20260902100600 73 1 7.0 10.4 0.00 0.00 0.00 81 1023.6
20260902095531 74 352 4.3 7.8 0.00 0.00 0.00 80 1023.5
20260902095036 74 360 5.2 8.7 0.00 0.00 0.00 80 1023.5
20260902094525 74 13 4.3 8.7 0.00 0.00 0.00 80 1023.5
20260902094030 74 359 4.3 8.7 0.00 0.00 0.00 80 1023.2
20260902093537 74 21 4.3 7.8 0.00 0.00 0.00 79 1023.2
20260902093023 74 20 3.5 8.7 0.00 0.00 0.00 80 1023.2
20260902092536 74 68 3.5 9.6 0.00 0.00 0.00 77 1023.0
20260902092020 74 53 5.2 10.4 0.00 0.00 0.00 77 1023.0
20260902091529 74 38 6.1 10.4 0.00 0.00 0.00 78 1023.0
20260902091034 74 72 7.0 9.6 0.00 0.00 0.00 78 1023.0
20260902090554 74 37 2.6 5.2 0.00 0.00 0.00 77 1023.0
20260902090035 73 68 0.0 6.1 0.00 0.00 0.00 77 1023.0
20260902085524 72 72 1.7 6.1 0.00 0.00 0.00 78 1022.7
20260902085029 72 39 2.6 5.2 0.00 0.00 0.00 80 1022.7
20260902084537 72 86 2.6 5.2 0.00 0.00 0.00 78 1022.7
20260902084025 72 27 1.7 4.3 0.00 0.00 0.00 79 1022.6
20260902083536 71 81 2.6 3.5 0.00 0.00 0.00 81 1022.6
20260902083021 71 32 0.9 3.5 0.00 0.00 0.00 82 1022.6
20260902082038 71 216 1.7 2.6 0.00 0.00 0.00 81 1022.6
20260902081525 70 216 0.0 0.0 0.00 0.00 0.00 82 1022.6
20260902081032 70 216 0.0 0.0 0.00 0.00 0.00 84 1022.6
20260902080553 69 216 0.0 0.0 0.00 0.00 0.00 85 1022.6
20260902080036 69 216 0.0 0.0 0.00 0.00 0.00 88 1022.6
20260902074525 68 216 0.0 0.9 0.00 0.00 0.00 87 1022.6
20260902074031 68 216 0.0 2.6 0.00 0.00 0.00 87 1022.4
20260902073523 67 216 0.9 2.6 0.00 0.00 0.00 89 1022.4
20260902073030 66 216 0.0 0.0 0.00 0.00 0.00 89 1022.4
20260902072539 66 216 0.0 0.0 0.00 0.00 0.00 90 1022.4
20260902072024 65 216 0.0 0.0 0.00 0.00 0.00 93 1022.4
20260902071532 64 216 0.0 0.0 0.00 0.00 0.00 94 1022.4
20260902071036 64 216 0.0 0.0 0.00 0.00 0.00 94 1022.4
20260902070558 64 216 0.0 0.0 0.00 0.00 0.00 95 1022.4
20260902070034 63 216 0.0 0.0 0.00 0.00 0.00 96 1022.4
20260902065523 63 216 0.0 0.0 0.00 0.00 0.00 96 1022.3
20260902065026 62 216 0.0 0.0 0.00 0.00 0.00 96 1022.3
20260902064521 62 216 0.0 0.9 0.00 0.00 0.00 97 1022.3
20260902064028 62 216 0.0 0.9 0.00 0.00 0.00 98 1022.3
20260902063537 61 216 0.0 0.0 0.00 0.00 0.00 99 1022.3
20260902063038 61 216 0.0 0.0 0.00 0.00 0.00 99 1022.3
20260902062526 60 216 0.0 0.0 0.00 0.00 0.00 100 1022.1
20260902062031 59 216 0.0 0.0 0.00 0.00 0.00 100 1022.1
20260902061520 59 216 0.0 0.0 0.00 0.00 0.00 99 1022.1
20260902061027 58 216 0.0 0.0 0.00 0.00 0.00 99 1022.0
20260902060548 58 216 0.0 0.0 0.00 0.00 0.00 99 1022.0
20260902060030 58 216 0.0 0.0 0.00 0.00 0.00 99 1022.1
20260902005525 61 132 0.9 1.7 0.00 0.00 0.00 95 1022.3
20260902005032 61 132 0.0 0.0 0.00 0.00 0.00 95 1022.3
20260902004525 61 133 0.0 0.0 0.00 0.00 0.00 95 1022.3
20260902004031 61 132 0.0 0.0 0.00 0.00 0.00 95 1022.3
20260902003540 61 132 0.0 0.0 0.00 0.00 0.00 95 1022.3
20260902003026 61 132 0.0 0.0 0.00 0.00 0.00 95 1022.3
20260902002534 62 132 0.0 0.0 0.00 0.00 0.00 95 1022.1
20260902002037 62 132 0.0 0.0 0.00 0.00 0.00 94 1022.1
20260902001526 62 132 0.0 0.0 0.00 0.00 0.00 94 1022.1
20260902001033 62 133 0.0 1.7 0.00 0.00 0.00 94 1022.0
20260902000554 62 132 0.0 1.7 0.00 0.00 0.00 94 1022.0
20260902000035 62 133 0.9 1.7 0.00 0.00 0.00 94 1022.0
20260901235529 62 132 0.9 1.7 0.00 0.00 0.00 94 1022.1
20260901234528 63 132 0.0 0.0 0.00 0.00 0.00 93 1022.1
20260901234033 63 132 0.0 0.0 0.00 0.00 0.00 91 1022.4
20260901233520 63 132 0.0 0.0 0.00 0.00 0.00 92 1022.4
20260901233027 63 132 0.0 0.0 0.00 0.00 0.00 93 1022.4
20260901232534 64 132 0.0 0.0 0.00 0.00 0.00 92 1022.2
20260901232039 64 132 0.0 0.0 0.00 0.00 0.00 92 1022.2
20260901231525 64 132 0.0 0.0 0.00 0.00 0.00 92 1022.2
20260901230556 64 132 0.0 0.9 0.00 0.00 0.00 91 1022.0
20260901230023 65 132 0.0 3.5 0.00 0.00 0.00 91 1022.0
20260901225532 65 132 0.9 3.5 0.00 0.00 0.00 91 1022.0
20260901225038 65 115 2.6 3.5 0.00 0.00 0.00 91 1022.0
20260901224525 65 108 1.7 2.6 0.00 0.00 0.00 92 1022.0
20260901224031 65 107 0.0 1.7 0.00 0.00 0.00 91 1022.0
20260901223520 65 108 0.9 1.7 0.00 0.00 0.00 91 1022.0
20260901223026 65 107 0.0 2.6 0.00 0.00 0.00 91 1022.0
20260901222535 65 108 0.9 2.6 0.00 0.00 0.00 90 1022.1
20260901222035 65 108 1.7 2.6 0.00 0.00 0.00 90 1022.1
20260901221528 65 107 0.0 0.0 0.00 0.00 0.00 90 1022.1
20260901221033 65 108 0.0 0.0 0.00 0.00 0.00 91 1022.2
20260901220554 65 107 0.0 0.0 0.00 0.00 0.00 90 1022.2
20260901220037 65 107 0.0 0.0 0.00 0.00 0.00 90 1022.2
20260901215524 65 107 0.0 0.0 0.00 0.00 0.00 91 1022.1
20260901215028 65 108 0.0 0.0 0.00 0.00 0.00 90 1022.1
20260901214026 66 108 0.0 0.0 0.00 0.00 0.00 90 1022.0
20260901213532 66 107 0.0 0.0 0.00 0.00 0.00 89 1022.0
20260901213034 66 107 0.0 0.0 0.00 0.00 0.00 89 1022.0
20260901212522 66 107 0.0 0.0 0.00 0.00 0.00 89 1022.0
20260901212032 66 107 0.0 0.0 0.00 0.00 0.00 89 1022.0
20260901211540 66 107 0.0 0.0 0.00 0.00 0.00 89 1022.0
20260901211024 66 108 0.0 0.0 0.00 0.00 0.00 88 1022.1
20260901210545 67 108 0.0 0.0 0.00 0.00 0.00 88 1022.1
20260901210029 67 108 0.0 1.7 0.00 0.00 0.00 87 1022.1
20260901205536 67 108 0.0 2.6 0.00 0.00 0.00 87 1022.2
20260901205022 67 107 1.7 2.6 0.00 0.00 0.00 87 1022.2
20260901204531 67 107 0.9 1.7 0.00 0.00 0.00 87 1022.2
20260901204035 67 108 0.9 1.7 0.00 0.00 0.00 86 1022.3
20260901203524 68 107 0.9 2.6 0.00 0.00 0.00 86 1022.3
20260901203034 68 108 1.7 3.5 0.00 0.00 0.00 86 1022.3
20260901202523 68 108 2.6 7.0 0.00 0.00 0.00 86 1022.1
20260901202028 68 88 2.6 7.0 0.00 0.00 0.00 86 1022.1
20260901201536 68 72 2.6 6.1 0.00 0.00 0.00 86 1022.1
20260901200545 68 68 1.7 5.2 0.00 0.00 0.00 85 1022.2
20260901195538 67 68 3.5 5.2 0.00 0.00 0.00 85 1022.1
20260901195023 67 46 4.3 5.2 0.00 0.00 0.00 85 1022.1
20260901194532 67 44 2.6 4.3 0.00 0.00 0.00 85 1022.1
20260901194035 67 42 2.6 4.3 0.00 0.00 0.00 85 1021.9
20260901193526 67 35 2.6 5.2 0.00 0.00 0.00 85 1021.9
20260901193032 68 35 3.5 6.1 0.00 0.00 0.00 85 1021.9
20260901192520 68 39 4.3 6.1 0.00 0.00 0.00 84 1021.8
20260901192027 68 44 4.3 5.2 0.00 0.00 0.00 84 1021.8
20260901191535 68 49 3.5 7.0 0.00 0.00 0.00 83 1021.8
20260901191040 68 38 4.3 7.0 0.00 0.00 0.00 83 1021.6
20260901190559 69 44 3.5 9.6 0.00 0.00 0.00 82 1021.6
20260901190022 69 43 5.2 9.6 0.00 0.00 0.00 82 1021.6
20260901185531 69 39 5.2 7.8 0.00 0.00 0.00 81 1021.5
20260901184032 70 41 9.6 12.2 0.00 0.00 0.00 80 1021.4
20260901182524 70 51 8.7 12.2 0.00 0.00 0.00 80 1021.4
20260901182026 70 64 8.7 12.2 0.00 0.00 0.00 79 1021.4
20260901181039 70 32 8.7 13.9 0.00 0.00 0.00 79 1021.4
20260901180600 70 47 9.6 13.0 0.00 0.00 0.00 79 1021.4
20260901180022 71 37 7.8 13.0 0.00 0.00 0.00 78 1021.4
20260901175531 71 32 9.6 12.2 0.00 0.00 0.00 77 1021.4
20260901174528 71 17 5.2 11.3 0.00 0.00 0.00 79 1021.4
20260901174035 71 20 8.7 13.9 0.00 0.00 0.00 77 1021.0
20260901173032 72 47 9.6 12.2 0.00 0.00 0.00 77 1021.0
20260901172540 72 32 7.8 12.2 0.00 0.00 0.00 78 1020.8
20260901172025 72 39 7.8 12.2 0.00 0.00 0.00 79 1020.8
20260901171534 72 30 8.7 12.2 0.00 0.00 0.00 78 1020.8
20260901171037 72 41 9.6 12.2 0.00 0.00 0.00 79 1020.4
20260901170600 72 28 8.7 11.3 0.00 0.00 0.00 78 1020.4
20260901165534 73 17 7.8 12.2 0.00 0.00 0.00 78 1020.2
20260901165039 73 56 7.0 12.2 0.00 0.00 0.00 78 1020.2
20260901164528 73 37 7.8 12.2 0.00 0.00 0.00 78 1020.2
20260901164032 73 32 8.7 12.2 0.00 0.00 0.00 78 1020.1
20260901163524 73 39 7.8 12.2 0.00 0.00 0.00 78 1020.1
20260901163029 74 37 6.1 12.2 0.00 0.00 0.00 78 1020.1
20260901162537 74 37 8.7 12.2 0.00 0.00 0.00 78 1020.2
20260901161531 74 44 6.1 12.2 0.00 0.00 0.00 77 1020.2
20260901161036 74 58 4.3 13.0 0.00 0.00 0.00 78 1020.3
20260901160558 74 40 8.7 13.0 0.00 0.00 0.00 78 1020.3
20260901155039 74 41 7.8 13.9 0.00 0.00 0.00 77 1020.3
20260901154527 74 68 9.6 13.0 0.00 0.00 0.00 76 1020.3
20260901154032 75 39 9.6 13.9 0.00 0.00 0.00 76 1020.4
20260901153524 75 44 8.7 13.9 0.00 0.00 0.00 75 1020.4
20260901153028 75 62 7.0 13.0 0.00 0.00 0.00 76 1020.4
20260901152538 75 58 7.0 12.2 0.00 0.00 0.00 76 1020.4
20260901151534 76 47 10.4 13.9 0.00 0.00 0.00 74 1020.4
20260901151037 76 74 7.0 13.9 0.00 0.00 0.00 75 1020.4
20260901150555 75 96 9.6 13.0 0.00 0.00 0.00 75 1020.4
20260901150037 75 86 10.4 13.0 0.00 0.00 0.00 76 1020.4
20260901145525 74 61 7.8 13.0 0.00 0.00 0.00 78 1020.4
20260901145031 74 10 6.1 13.9 0.00 0.00 0.00 78 1020.4
20260901144524 74 80 9.6 13.9 0.00 0.00 0.00 78 1020.4
20260901144029 74 41 9.6 13.9 0.00 0.00 0.00 77 1020.4
20260901143538 74 50 9.6 12.2 0.00 0.00 0.00 78 1020.4
20260901143024 74 38 7.8 13.0 0.00 0.00 0.00 79 1020.4
20260901142532 74 13 9.6 13.0 0.00 0.00 0.00 78 1020.5
20260901142035 73 48 7.0 12.2 0.00 0.00 0.00 80 1020.5
20260901141524 73 85 7.0 13.9 0.00 0.00 0.00 79 1020.5
20260901141030 73 41 7.8 13.9 0.00 0.00 0.00 79 1020.7
20260901140550 74 37 9.6 11.3 0.00 0.00 0.00 78 1020.7
20260901140032 73 56 8.7 11.3 0.00 0.00 0.00 79 1020.7
20260901135031 74 60 4.3 11.3 0.00 0.00 0.00 78 1021.0
20260901134537 74 40 8.7 12.2 0.00 0.00 0.00 77 1021.0
20260901134022 75 25 7.0 13.0 0.00 0.00 0.00 76 1020.9
20260901133531 75 36 8.7 13.9 0.00 0.00 0.00 76 1020.9